This demonstration page uses our WeatherBlox Daily Observations layout. Learn more.

Left ArrowRight Arrow

Hourly Observations for July 25, 2018

Temp ( °F °C ) Dew Point ( °F °C ) Humidity (%) Winds ( mph kmh ) Pressure ( in mb ) Visibility ( mi km ) Precip ( " mm )
12:17 am 00:17 Clear 64 18 64 18 100 100 N N/A 30 1016 10 16.0934 N/A
12:36 am 00:36 Clear 64 18 64 18 100 100 WNW 3 6 30 1016 10 16.0934 N/A
12:56 am 00:56 Clear 63 17 63 17 100 100 N N/A 30 1016 10 16.0934 N/A
1:17 am 01:17 Clear 63 17 63 17 100 100 N N/A 30 1016 10 16.0934 N/A
1:36 am 01:36 Clear 63 17 63 17 100 100 N N/A 30 1016 10 16.0934 N/A
1:57 am 01:57 Clear 63 17 63 17 100 100 N N/A 30 1016 10 16.0934 N/A
2:16 am 02:16 Clear 63 17 63 17 100 100 N N/A 30 1016 10 16.0934 N/A
2:37 am 02:37 Clear 63 17 63 17 100 100 N N/A 30 1016 10 16.0934 N/A
2:56 am 02:56 Clear 63 17 63 17 100 100 N N/A 30 1016 10 16.0934 N/A
3:16 am 03:16 Clear 63 17 63 17 100 100 WNW 3 6 30 1016 10 16.0934 N/A
3:37 am 03:37 Partly Cloudy 64 18 64 18 100 100 NW 5 7 30 1016 10 16.0934 N/A
3:56 am 03:56 Mostly Cloudy 63 17 63 17 100 100 N N/A 30 1016 10 16.0934 N/A
4:17 am 04:17 Mostly Cloudy 63 17 63 17 100 100 N N/A 30 1016 10 16.0934 N/A
4:36 am 04:36 Mostly Cloudy 64 18 64 18 100 100 N N/A 30 1016 10 16.0934 N/A
4:56 am 04:56 Partly Cloudy 63 17 63 17 100 100 N N/A 30 1016 10 16.0934 N/A
5:17 am 05:17 Clear 61 16 61 16 100 100 N N/A 30 1016 10 16.0934 N/A
5:36 am 05:36 Clear 63 17 63 17 100 100 N N/A 30 1016 10 16.0934 N/A
5:56 am 05:56 Clear 63 17 63 17 100 100 N N/A 30 1016 10 16.0934 N/A
6:17 am 06:17 Clear 63 17 63 17 100 100 N N/A 30 1016 10 16.0934 N/A
6:36 am 06:36 Clear 61 16 61 16 100 100 N N/A 30 1016 10 16.0934 N/A
6:57 am 06:57 Sunny 61 16 61 16 100 100 N N/A 30 1016 10 16.0934 N/A
7:16 am 07:16 Sunny 63 17 63 17 100 100 N N/A 30 1016 10 16.0934 N/A
7:36 am 07:36 Sunny 63 17 63 17 100 100 N N/A 30 1016 7 11.26538 N/A
7:57 am 07:57 Sunny 64 18 64 18 100 100 N N/A 30 1016 10 16.0934 N/A
8:16 am 08:16 Sunny 68 20 68 20 100 100 N N/A 30 1016 10 16.0934 N/A
8:37 am 08:37 Sunny 70 21 70 21 100 100 N N/A 29.97 1015 10 16.0934 N/A
8:56 am 08:56 Sunny 72 22 70 21 94 94 NNW 3 6 30 1016 10 16.0934 N/A
9:16 am 09:16 Sunny 73 23 70 21 89 89 N 3 6 30 1016 10 16.0934 N/A
9:37 am 09:37 Sunny 75 24 70 21 83 83 N N/A 30 1016 10 16.0934 N/A
9:56 am 09:56 Sunny 75 24 70 21 83 83 N 3 6 30 1016 10 16.0934 N/A
10:16 am 10:16 Sunny 77 25 70 21 79 79 NNE 3 6 30 1016 10 16.0934 N/A
10:37 am 10:37 Sunny 77 25 72 22 83 83 NNE 5 7 30 1016 10 16.0934 N/A
10:56 am 10:56 Sunny 79 26 70 21 74 74 NE 5 7 30 1016 10 16.0934 N/A
11:17 am 11:17 Sunny 79 26 70 21 74 74 N 5 7 30 1016 10 16.0934 N/A
11:36 am 11:36 Sunny 79 26 70 21 74 74 NNE 3 6 30 1016 10 16.0934 N/A
11:56 am 11:56 Sunny 81 27 70 21 70 70 N N/A 30 1016 10 16.0934 N/A
12:17 pm 12:17 Sunny 81 27 72 22 74 74 NE 6 9 30 1016 10 16.0934 N/A
12:36 pm 12:36 Sunny 81 27 72 22 74 74 ENE 8 13 30 1016 10 16.0934 N/A
12:56 pm 12:56 Sunny 81 27 70 21 70 70 N 5 7 30 1016 10 16.0934 N/A
1:17 pm 13:17 Sunny 82 28 72 22 70 70 NE 5 7 30 1016 10 16.0934 N/A
1:36 pm 13:36 Partly Cloudy 82 28 72 22 70 70 N N/A 30 1016 10 16.0934 N/A
1:56 pm 13:56 Partly Cloudy 81 27 70 21 70 70 N 3 6 29.97 1015 10 16.0934 N/A
2:17 pm 14:17 Partly Cloudy 82 28 72 22 70 70 NE 3 6 29.97 1015 10 16.0934 N/A
2:36 pm 14:36 Mostly Cloudy 82 28 70 21 66 66 N 6 9 29.97 1015 10 16.0934 N/A
2:56 pm 14:56 Partly Cloudy 84 29 70 21 62 62 NNE 6 9 29.97 1015 10 16.0934 N/A
3:17 pm 15:17 Partly Cloudy 84 29 72 22 66 66 NNE 7 11 29.97 1015 10 16.0934 N/A
3:36 pm 15:36 Partly Cloudy 82 28 70 21 66 66 N 8 13 29.97 1015 10 16.0934 N/A
3:57 pm 15:57 Partly Cloudy 84 29 72 22 66 66 NNW 6 9 29.97 1015 10 16.0934 N/A
4:16 pm 16:16 Partly Cloudy 82 28 70 21 66 66 NNW 5 7 29.97 1015 10 16.0934 N/A
4:36 pm 16:36 Partly Cloudy 82 28 72 22 70 70 N 6 9 29.94 1014 10 16.0934 N/A
4:57 pm 16:57 Partly Cloudy 84 29 72 22 66 66 N 6 9 29.94 1014 10 16.0934 N/A
5:16 pm 17:16 Partly Cloudy 81 27 70 21 70 70 N 9 15 29.94 1014 10 16.0934 N/A
5:36 pm 17:36 Partly Cloudy 82 28 72 22 70 70 N 12 19 29.94 1014 10 16.0934 N/A
5:57 pm 17:57 Partly Cloudy 82 28 70 21 66 66 N 12 19 29.94 1014 10 16.0934 N/A
6:16 pm 18:16 Partly Cloudy 82 28 70 21 66 66 NNW 12 19 29.94 1014 10 16.0934 N/A
6:36 pm 18:36 Partly Cloudy 81 27 70 21 70 70 N 8 13 29.94 1014 10 16.0934 N/A
6:57 pm 18:57 Sunny 82 28 70 21 66 66 NNW 8 13 29.94 1014 10 16.0934 N/A
7:16 pm 19:16 Sunny 81 27 68 20 66 66 N 8 13 29.94 1014 10 16.0934 N/A
7:37 pm 19:37 Sunny 81 27 68 20 66 66 N 8 13 29.94 1014 10 16.0934 N/A
7:56 pm 19:56 Sunny 79 26 68 20 70 70 N 7 11 29.94 1014 10 16.0934 N/A
8:17 pm 20:17 Sunny 77 25 68 20 74 74 N 6 9 29.94 1014 10 16.0934 N/A
8:36 pm 20:36 Sunny 73 23 68 20 83 83 NNW 5 7 29.94 1014 10 16.0934 N/A
8:56 pm 20:56 Sunny 73 23 66 19 78 78 NNW 6 9 29.94 1014 10 16.0934 N/A
9:17 pm 21:17 Clear 72 22 64 18 78 78 NW 6 9 29.94 1014 10 16.0934 N/A
9:36 pm 21:36 Clear 70 21 64 18 83 83 NW 5 7 29.94 1014 10 16.0934 N/A
9:57 pm 21:57 Clear 68 20 64 18 88 88 N N/A 30 1016 10 16.0934 N/A
10:17 pm 22:17 Clear 66 19 64 18 94 94 N N/A 30 1016 10 16.0934 N/A
10:36 pm 22:36 Clear 64 18 64 18 100 100 N N/A 30 1016 10 16.0934 N/A
10:57 pm 22:57 Clear 66 19 64 18 94 94 N N/A 30 1016 10 16.0934 N/A
11:17 pm 23:17 Clear 63 17 63 17 100 100 N N/A 30 1016 10 16.0934 N/A
11:36 pm 23:36 Clear 64 18 64 18 100 100 N N/A 30 1016 10 16.0934 N/A
11:57 pm 23:57 Clear 64 18 64 18 100 100 N N/A 30 1016 10 16.0934 N/A

Powered by AerisWeather